Regional Weather Roundup
Issued by NWS Charleston, SC

Current Version | Previous Version | Text Only | Print | Product List | Glossary Off
Versions: 1 2 3 4 5 6 7 8 9 10 11 12 13 14 15 16 17 18 19 20 21 22 23 24 25 26 27 28 29 30 31 32 33 34 35 36 37 38 39 40 41 42 43 44 45 46 47 48 49 50

000
ASUS42 KCHS 240510
RWRCHS
REGIONAL WEATHER ROUNDUP
NATIONAL WEATHER SERVICE CHARLESTON SC
100 AM EDT THU APR 24 2014

NOTE: "FAIR" INDICATES FEW OR NO CLOUDS BELOW 12,000 FEET WITH NO
SIGNIFICANT WEATHER AND/OR OBSTRUCTIONS TO VISIBILITY.

NOT ALL STATIONS ARE QUALITY CONTROLLED BY THE NATIONAL
WEATHER SERVICE. USE DATA WITH CAUTION...ESPECIALLY
DEWPOINT OBSERVATIONS.

SCZ027-030-031-034>040-042>050-240600-
...SOUTH CAROLINA...

CITY           SKY/WX    TMP DP  RH WIND       PRES   REMARKS
N CHARLESTON   CLEAR     62  50  64 NE6       29.95R
WATERFRONT PRK   N/A     66 N/A N/A N5          N/A
FORT JOHNSON   NOT AVBL
MOUNT PLEASANT FAIR      57  57 100 CALM      29.94S FOG
JOHNS ISLAND   CLEAR     61  61 100 CALM      29.94S
PINOPOLIS        N/A     66  46  48 E3        29.86S
MONCKS CORNER  FAIR      55  54  94 CALM      29.95R
SUMMERVILLE    NOT AVBL
BEAUFORT MCAS  CLEAR     61  55  81 CALM      29.93R
BEAUFORT ARPT  FAIR      63  59  88 CALM      29.93R
HILTON HEAD IS NOT AVBL
GEORGETOWN     NOT AVBL
WALTERBORO     CLEAR     54 N/A N/A CALM      29.95R
ORANGEBURG     CLEAR     55  49  80 CALM      29.95R
BARNWELL       FAIR      55  52  88 CALM      29.95R
AIKEN          FAIR      59  46  63 CALM      29.98R
MANNING        FAIR      52 N/A N/A CALM      29.95S
KINGSTREE      NOT AVBL
COLUMBIA       CLEAR     52  46  80 SW3       29.96R
SUMTER         CLEAR     54  45  70 CALM      29.95R
FLORENCE       CLEAR     51  42  71 N3        29.97R
MYRTLE BEACH   CLEAR     63  48  59 E7        29.96R
N MYRTLE BEACH CLEAR     53  47  79 CALM      29.96R

$$

GAZ063-065-086>088-099>101-113>116-118-119-134-136>141-150-240600-
...GEORGIA...

CITY           SKY/WX    TMP DP  RH WIND       PRES   REMARKS
SAVANNAH ARPT  CLEAR     61  55  81 N5        29.93S
HUNTER AAF     CLEAR     60  56  86 SW1       29.91S
FORT STEWART   CLEAR     60  60 100 CALM      29.92S
STATESBORO     NOT AVBL
SYLVANIA       CLEAR     58  54  86 CALM      29.94S FOG
CLAXTON        FAIR     N/A N/A N/A CALM      29.94R
THOMSON        CLEAR     52  52 100 CALM      29.99R
AUGUSTA-BUSH   CLEAR     50  48  93 CALM      29.94R
AUGUSTA-DANIEL CLEAR     63  46  54 CALM      29.95R
SWAINSBORO     FAIR      52  52 100 CALM      29.95S
VIDALIA        CLEAR     61  55  82 CALM      29.94S
ALMA           CLEAR     58  56  93 CALM      29.93S FOG
WAYCROSS       NOT AVBL
JESUP          FAIR      55  55 100 CALM      29.94S FOG
BRUNSWICK        N/A     63  61  94 CALM      29.95S
SAINT SIMONS   CLEAR     67  62  84 SW3       29.94S

$$

SCZ027-028-034-036>038-045-046-048>050-GAZ119-141-240600-
...LAKE AND SUPPLEMENTAL COASTAL OBSERVATIONS...

STATION/POSITION TIME  TEMP    WIND        PRES    WAVE   SWELL
                       AIR SEA DIR/SP/G            HT/PER HT/PER/DIR
                 (UTC) (F)     (DEG/KT/KT) (MB)    (FT/S) (FT/S/D)
UPR LAKE MARION  NOT AVBL
WINYAH BAY       0400   65      40/  2     1013.0S
LAKE MURRAY      0400   60      CALM  /  2 1013.9R
ACE BASIN NERRS  0400   63        CALM     1013.0S
FORT PULASKI     0500   66 60  200/  3/  4 1013.7R
SAPELO ISLAND    0400   67     170/  5     1014.0S

$$

ANZ835-935-AMZ111-154-330-350-352-354-374-450-454-472-240600-
...C-MAN AND BUOY OBSERVATIONS...

STATION/POSITION TIME  TEMP    WIND        PRES    WAVE   SWELL
                       AIR SEA DIR/SP/G            HT/PER HT/PER/DIR
                 (UTC) (F)     (DEG/KT/KT) (MB)    (FT/S) (FT/S/D)
FOLLY BEACH CMAN 0400   65     290/  3/  3 1013.9R
BUOY 41004       0500   66 67  310/  2/  4 1013.6R   2/ 8   2/ 8
BUOY 41008       0500   69 67  220/  8/  8 1013.6F   1/ 8   2/ 90/ 8
5E ST. MARYS GA  0500      69                N/A     1/ 8
FRYING PAN BUOY  0500   68 68   70/  6/  8 1014.3R   2/ 8   2/100/ 8
BUOY 41025       0500   61 74   10/ 16/ 19 1014.5R   4/ 9   3/ 50/ 9
CAPE LOOKOUT NC  0400   61      60/  2/  2 1013.7R
BUOY 41002       NOT AVBL
BUOY 41010       0500   74 75  220/  6/  6 1014.7S   2/ 8   2/120/ 8
BUOY 41012       NOT AVBL
ST AUGUSTINE FL  0500   69     190/  5/  6 1014.5S
CAPERS NEARSHORE NOT AVBL
FRIPP NEARSHORE  0400   67     270/  4/  6   N/A


$$


USA.gov is the U.S. government's official web portal to all federal, state and local government web resources and services.